EW3511 Weather Reports


Display with metric or nautical units.
time (UTC)temp
F
wind
direction
speed
MPH
gust
MPH
rain 1hr
in
rain 24hr
in
rain mn
in
humidity
%
barometer
mb
20260904231559 77 232 3.0 8.0 0.00 0.01 0.00 54 1016.4
20260904230600 77 224 4.0 9.0 0.00 0.01 0.00 53 1016.3
20260904225600 77 250 5.0 13.0 0.00 0.01 0.00 52 1016.3
20260904224640 77 264 4.0 11.0 0.00 0.01 0.00 52 1016.3
20260904223601 77 223 4.0 9.0 0.00 0.01 0.00 52 1016.3
20260904222601 77 232 5.0 9.0 0.00 0.01 0.00 51 1016.0
20260904221601 77 259 4.0 10.0 0.00 0.01 0.00 50 1016.1
20260904220602 77 220 3.0 9.0 0.00 0.01 0.00 50 1016.1
20260904215622 78 259 3.0 8.0 0.00 0.01 0.01 50 1016.0
20260904214603 78 259 4.0 8.0 0.00 0.01 0.01 49 1015.9
20260904213603 77 235 3.0 8.0 0.00 0.01 0.01 50 1016.0
20260904212603 78 249 4.0 8.0 0.00 0.01 0.01 49 1015.8
20260904211604 78 280 4.0 9.0 0.00 0.01 0.01 49 1015.9
20260904210604 78 266 3.0 9.0 0.00 0.01 0.01 49 1015.7
20260904205604 78 251 5.0 13.0 0.00 0.01 0.01 48 1015.6
20260904204605 78 238 4.0 10.0 0.00 0.01 0.01 48 1015.6
20260904203538 78 252 4.0 10.0 0.00 0.01 0.01 48 1015.7
20260904202538 78 265 6.0 11.0 0.00 0.01 0.01 48 1015.6
20260904201538 78 257 6.0 13.0 0.00 0.01 0.01 47 1015.6
20260904200539 78 251 4.0 9.0 0.00 0.01 0.01 48 1015.5
20260904195539 78 244 3.0 8.0 0.00 0.01 0.01 48 1015.5
20260904194540 78 203 3.0 8.0 0.00 0.01 0.01 48 1015.5
20260904193541 78 247 3.0 8.0 0.00 0.01 0.01 48 1015.5
20260904192621 78 250 4.0 7.0 0.00 0.01 0.01 48 1015.5
20260904191541 78 230 2.0 6.0 0.00 0.01 0.01 48 1015.4
20260904190541 78 229 2.0 7.0 0.00 0.01 0.01 48 1015.4
20260904185542 78 209 2.0 6.0 0.00 0.01 0.01 48 1015.2
20260904184542 78 204 2.0 6.0 0.00 0.01 0.01 47 1015.3
20260904183542 78 233 3.0 9.0 0.00 0.01 0.01 46 1015.1
20260904182543 79 213 3.0 7.0 0.00 0.01 0.01 46 1015.0
20260904181544 80 187 2.0 5.0 0.00 0.01 0.01 45 1014.8
20260904180603 80 237 2.0 6.0 0.00 0.01 0.01 44 1014.8
20260904175604 81 206 2.0 5.0 0.00 0.01 0.01 44 1014.6
20260904174544 82 114 1.0 3.0 0.00 0.01 0.01 43 1014.5
20260904173545 82 237 3.0 7.0 0.00 0.01 0.01 42 1014.3
20260904172545 83 250 3.0 9.0 0.00 0.01 0.01 40 1014.3
20260904171546 85 225 2.0 5.0 0.00 0.01 0.01 39 1014.4
20260904170547 85 265 4.0 8.0 0.00 0.01 0.01 38 1014.4
20260904165547 86 278 3.0 7.0 0.00 0.01 0.01 37 1014.4
20260904164547 87 230 3.0 7.0 0.00 0.01 0.01 36 1014.3
20260904163548 87 275 3.0 9.0 0.00 0.01 0.01 36 1014.3
20260904162547 87 298 6.0 22.0 0.00 0.01 0.01 36 1014.3
20260904161548 87 319 4.0 10.0 0.00 0.01 0.01 36 1014.4
20260904160549 87 303 5.0 13.0 0.00 0.01 0.01 36 1014.4
20260904155550 88 292 6.0 13.0 0.01 0.01 0.01 35 1014.4
20260904154609 89 317 4.0 9.0 0.01 0.01 0.01 34 1014.4
20260904153551 89 287 6.0 13.0 0.01 0.01 0.01 33 1014.4
20260904152551 90 244 4.0 9.0 0.01 0.01 0.01 32 1014.5
20260904151550 89 266 6.0 16.0 0.01 0.01 0.01 32 1014.5
20260904150551 89 296 4.0 21.0 0.01 0.01 0.01 35 1014.7
20260904145551 90 220 5.0 14.0 0.00 0.00 0.00 31 1014.8
20260904144612 91 211 3.0 10.0 0.00 0.00 0.00 33 1014.8
20260904143553 90 233 3.0 13.0 0.00 0.00 0.00 35 1014.9
20260904142553 90 177 3.0 7.0 0.00 0.00 0.00 37 1015.0
20260904141553 90 169 3.0 11.0 0.00 0.00 0.00 36 1015.1
20260904140554 91 210 3.0 7.0 0.00 0.00 0.00 36 1015.1
20260904135554 89 256 4.0 14.0 0.00 0.00 0.00 36 1015.2
20260904134554 90 206 4.0 10.0 0.00 0.00 0.00 36 1015.4
20260904133615 90 164 3.0 8.0 0.00 0.00 0.00 36 1015.5
20260904132555 89 202 3.0 8.0 0.00 0.00 0.00 36 1015.7
20260904131555 90 225 3.0 7.0 0.00 0.00 0.00 36 1015.9
20260904130556 89 248 3.0 10.0 0.00 0.00 0.00 37 1016.1
20260904125557 89 173 2.0 8.0 0.00 0.00 0.00 38 1016.3
20260904124557 88 179 3.0 8.0 0.00 0.00 0.00 40 1016.4
20260904123558 88 207 3.0 10.0 0.00 0.00 0.00 39 1016.6
20260904122558 88 178 2.0 7.0 0.00 0.00 0.00 40 1016.8
20260904121632 87 164 2.0 8.0 0.00 0.00 0.00 41 1016.9
20260904120558 88 104 2.0 7.0 0.00 0.00 0.00 40 1017.1
20260904115600 86 208 4.0 9.0 0.00 0.00 0.00 42 1017.3
20260904114619 85 216 5.0 14.0 0.00 0.00 0.00 42 1017.5
20260904113620 85 196 3.0 7.0 0.00 0.00 0.00 43 1017.7
20260904112601 85 142 3.0 7.0 0.00 0.00 0.00 44 1017.8
20260904111601 85 186 2.0 6.0 0.00 0.00 0.00 43 1018.1
20260904110601 84 157 3.0 9.0 0.00 0.00 0.00 44 1018.2
20260904105603 83 253 2.0 6.0 0.00 0.00 0.00 46 1018.4
20260904104602 83 178 3.0 8.0 0.00 0.00 0.00 45 1018.7
20260904103603 83 157 3.0 8.0 0.00 0.00 0.00 45 1018.8
20260904102603 83 208 3.0 7.0 0.00 0.00 0.00 45 1019.0
20260904101603 82 188 3.0 8.0 0.00 0.00 0.00 47 1019.2
20260904100603 82 187 2.0 7.0 0.00 0.00 0.00 47 1019.3
20260904095604 81 128 3.0 9.0 0.00 0.00 0.00 47 1019.4
20260904094605 80 229 4.0 8.0 0.00 0.00 0.00 48 1019.7
20260904093604 80 201 1.0 10.0 0.00 0.00 0.00 49 1019.9
20260904092626 81 190 2.0 6.0 0.00 0.00 0.00 48 1020.1
20260904091605 80 172 2.0 6.0 0.00 0.00 0.00 50 1020.2
20260904090626 80 139 2.0 6.0 0.00 0.00 0.00 49 1020.3
20260904085606 80 146 2.0 6.0 0.00 0.00 0.00 51 1020.4
20260904084607 78 196 2.0 5.0 0.00 0.00 0.00 53 1020.4
20260904083607 78 216 2.0 6.0 0.00 0.00 0.00 52 1020.5
20260904082608 77 132 1.0 7.0 0.00 0.00 0.00 53 1020.5
20260904081608 76 213 3.0 8.0 0.00 0.00 0.00 54 1020.5
20260904080608 76 211 3.0 7.0 0.00 0.00 0.00 54 1020.6
20260904075610 76 183 2.0 7.0 0.00 0.00 0.00 55 1020.5
20260904074629 75 216 2.0 6.0 0.00 0.00 0.00 57 1020.7
20260904073558 75 126 2.0 7.0 0.00 0.00 0.00 58 1020.6
20260904072538 74 175 2.0 7.0 0.00 0.00 0.00 59 1020.6
20260904071539 74 173 2.0 5.0 0.00 0.00 0.00 58 1020.6
20260904070539 73 117 1.0 3.0 0.00 0.00 0.00 60 1020.7
20260904065539 74 109 1.0 2.0 0.00 0.00 0.00 60 1020.7
20260904064541 74 138 1.0 3.0 0.00 0.00 0.00 59 1020.7
20260904063543 72 134 1.0 3.0 0.00 0.00 0.00 61 1020.7
20260904062541 72 114 0.0 2.0 0.00 0.00 0.00 59 1020.7
20260904061541 71 156 2.0 3.0 0.00 0.00 0.00 62 1020.9
20260904060541 70 116 1.0 3.0 0.00 0.00 0.00 63 1020.9
20260904055542 69 102 0.0 3.0 0.00 0.00 0.00 64 1020.8
20260904054542 69 189 2.0 5.0 0.00 0.00 0.00 63 1020.9
20260904053542 68 154 1.0 3.0 0.00 0.00 0.00 64 1020.8
20260904052543 68 165 1.0 3.0 0.00 0.00 0.00 64 1020.9
20260904051544 67 132 1.0 3.0 0.00 0.00 0.00 66 1020.9
20260904050604 66 102 0.0 2.0 0.00 0.00 0.00 68 1020.8
20260904045544 66 109 0.0 2.0 0.00 0.00 0.00 67 1020.7
20260904044544 67 141 0.0 1.0 0.00 0.00 0.00 66 1020.9
20260904043545 67 157 1.0 2.0 0.00 0.00 0.00 65 1020.8
20260904042605 67 113 0.0 3.0 0.00 0.00 0.00 66 1020.7
20260904041545 67 112 0.0 1.0 0.00 0.00 0.00 65 1020.8
20260904040606 67 102 0.0 1.0 0.00 0.00 0.00 65 1021.0
20260904035547 67 102 0.0 1.0 0.00 0.00 0.00 64 1021.0
20260904034607 67 98 0.0 2.0 0.00 0.00 0.00 64 1021.1
20260904033548 67 96 0.0 1.0 0.00 0.00 0.00 64 1020.9
20260904032548 68 125 0.0 2.0 0.00 0.00 0.00 64 1021.1
20260904031550 68 150 1.0 3.0 0.00 0.00 0.00 63 1021.0
20260904030550 68 119 0.0 3.0 0.00 0.00 0.00 63 1021.0
20260904025549 68 187 1.0 5.0 0.00 0.00 0.00 64 1021.1
20260904024550 68 80 1.0 3.0 0.00 0.00 0.00 63 1021.2
20260904023550 69 151 1.0 3.0 0.00 0.00 0.00 62 1021.3
20260904022551 69 195 1.0 5.0 0.00 0.00 0.00 62 1021.2
20260904021632 69 177 1.0 3.0 0.00 0.00 0.00 62 1021.2
20260904020551 69 160 2.0 5.0 0.00 0.00 0.00 62 1021.3
20260904015552 69 139 1.0 3.0 0.00 0.00 0.00 62 1021.4
20260904014552 69 135 1.0 5.0 0.00 0.00 0.00 62 1021.4
20260904013552 69 141 1.0 3.0 0.00 0.00 0.00 63 1021.4
20260904012553 68 144 1.0 3.0 0.00 0.00 0.00 65 1021.5
20260904011554 68 0.0 0.0 0.00 0.00 0.00 66 1021.6
20260904010554 69 117 0.0 3.0 0.00 0.00 0.00 65 1021.5
20260904005554 69 139 0.0 2.0 0.00 0.00 0.00 64 1021.6
20260904004554 69 138 1.0 2.0 0.00 0.00 0.00 64 1021.7
20260904003556 68 122 0.0 2.0 0.00 0.00 0.00 66 1021.6
20260904002557 69 107 1.0 2.0 0.00 0.00 0.00 66 1021.6
20260904001556 69 100 0.0 1.0 0.00 0.00 0.00 65 1021.8
20260904000556 69 118 1.0 3.0 0.00 0.00 0.00 66 1021.8
20260903235557 69 147 0.0 2.0 0.00 0.00 0.00 65 1022.0
20260903234637 69 127 1.0 3.0 0.00 0.00 0.00 65 1022.0
20260903233557 69 145 1.0 3.0 0.00 0.00 0.00 66 1022.0
20260903232558 69 168 1.0 3.0 0.00 0.00 0.00 67 1022.0